Home   Weather   Biarritz   Past weeks

Flag for France Past Weather in Biarritz, Aquitaine, France — Yesterday and Last 2 Weeks

Now
27 °F

Overcast.


Feels Like: 21 °F
Forecast: 25 / 39 °F
Wind: 5 mph from East

Location: Biarritz Airport

Current Time: Jan 18, 2017 at 11:13:39 am

Latest Report: Jan 18, 2017 at 10:30 am


Visibility: N/A

Pressure: 30.36 "Hg

Humidity: 80%

Dew Point: 21 °F

Location of BiarritzLocation

Past Weather in Biarritz — Graph

°F

Biarritz Temperature Yesterday

Maximum temperature yesterday: 43 °F (at 12:00 am)
Minimum temperature yesterday: 30 °F (at 8:30 am)
Average temperature yesterday: 37 °F

High & Low Weather Summary for the Past Weeks

 TemperatureHumidityPressure
High55 °F (Jan 11, 11:00 am)100% (Jan 3, 10:00 am)30.57 "Hg (Jan 3, 10:00 am)
Low23 °F (Jan 5, 4:30 am)45% (Jan 17, 5:30 pm)30.01 "Hg (Jan 10, 7:30 am)
Average41 °F86%30.34 "Hg
* Reported Jan 3 10:00 am — Jan 18 10:00 am, Biarritz, Weather by CustomWeather, © 2017

Note: Actual official high and low records may vary slightly from our data, if they occured in-between our weather recording intervals... More about our weather records

Advertising

Biarritz Weather History for the Previous 24 Hours

Scroll right to see more
 ConditionsComfort  
Time TempWeatherWind HumidityBarometerVisibility
10:00 am
Wed, Jan 18
27 °FOvercast.5 mph80%30.36 "HgN/A
9:30 am27 °FOvercast.5 mph80%30.36 "HgN/A
9:00 am27 °FOvercast.5 mph80%30.33 "HgN/A
8:30 am27 °FOvercast.3 mph74%30.33 "HgN/A
8:00 am27 °FOvercast.3 mph74%30.33 "HgN/A
7:30 am27 °FOvercast.6 mph74%30.33 "HgN/A
7:00 am27 °FOvercast.5 mph74%30.33 "HgN/A
6:30 am27 °FPassing clouds.7 mph74%30.33 "HgN/A
6:00 am27 °FOvercast.6 mph80%30.33 "HgN/A
5:30 am27 °FPassing clouds.6 mph80%30.33 "HgN/A
5:00 am27 °FPassing clouds.5 mph80%30.33 "HgN/A
4:30 am27 °FPassing clouds.5 mph80%30.33 "HgN/A
4:00 am28 °FPassing clouds.5 mph74%30.33 "HgN/A
3:30 am28 °FClear.5 mph74%30.33 "Hg10 mi
3:00 am28 °FClear.5 mph74%30.33 "Hg10 mi
2:30 am28 °FPassing clouds.6 mph74%30.33 "HgN/A
2:00 am28 °FClear.3 mph74%30.33 "Hg10 mi
1:30 am30 °FClear.5 mph69%30.36 "Hg10 mi
1:00 am30 °FPassing clouds.5 mph69%30.36 "HgN/A
12:30 am30 °FPassing clouds.6 mph69%30.36 "HgN/A
12:00 am30 °FPassing clouds.6 mph64%30.36 "HgN/A
11:30 pm
Tue, Jan 17
30 °FClear.3 mph64%30.36 "Hg10 mi
11:00 pm32 °FClear.3 mph60%30.36 "Hg10 mi
10:30 pm32 °FClear.3 mph60%30.36 "Hg10 mi
10:00 pm32 °FClear.6 mph60%30.36 "Hg10 mi
9:30 pm34 °FClear.7 mph56%30.36 "Hg10 mi
9:00 pm34 °FPassing clouds.5 mph60%30.36 "HgN/A
8:30 pm34 °FPassing clouds.5 mph60%30.36 "HgN/A
8:00 pm36 °FPassing clouds.7 mph56%30.36 "HgN/A
7:30 pm36 °FPassing clouds.8 mph52%30.36 "HgN/A
7:00 pm37 °FClear.9 mph48%30.33 "Hg10 mi
6:30 pm37 °FClear.8 mph52%30.33 "Hg10 mi
6:00 pm39 °FPassing clouds.6 mph45%30.33 "HgN/A
5:30 pm41 °FSunny.8 mph45%30.33 "Hg10 mi
5:00 pm41 °FSunny.8 mph49%30.33 "Hg10 mi
4:30 pm41 °FPassing clouds.10 mph53%30.33 "HgN/A
4:00 pm41 °FPassing clouds.6 mph49%30.33 "HgN/A
3:30 pm39 °FPassing clouds.7 mph56%30.33 "HgN/A
3:00 pm39 °FPassing clouds.8 mph61%30.36 "HgN/A
2:30 pm39 °FPassing clouds.7 mph61%30.36 "HgN/A
2:00 pm39 °FPassing clouds.6 mph61%30.36 "HgN/A
1:30 pm37 °FPassing clouds.7 mph65%30.36 "HgN/A
1:00 pm37 °FSunny.3 mph60%30.39 "Hg10 mi
12:30 pm37 °FSunny.3 mph70%30.39 "Hg10 mi
12:00 pm36 °FPassing clouds.5 mph75%30.39 "HgN/A
11:30 am36 °FPassing clouds.7 mph75%30.39 "HgN/A
11:00 am36 °FPassing clouds.3 mph75%30.39 "HgN/A
Weather by CustomWeather, © 2017

See weather overviewHow to use our weather pages